IW0GZ Monterotondo IT current weather conditions

sailwx.info

Wind from 205 at 0 knots gusting 4

Air temperature 15.0° C
Dewpoint 11.4° C

Last reported at 2019-Dec-08 13:39 UTC.
Time now 2019-Dec-08 21:03 UTC

Location: N 42°04' E 012°37'.
View on Google Maps.

See reports from other nearby stations

  
Tides and Currents Weather Stations Pressure Air Temp Water Temp Dewpoint Dewpoint Depression Visibility Wind Speed Wind Dir Waves Ship Positions
date/time (UTC)wind fromknots sea level pressurealtimeterstation pressurevisibilityair tempwater tempwave heightnotes
2019-Dec-08 13:39 205 0 gusting 4 15.0
2019-Dec-08 13:29 147 0 gusting 2 15.6
2019-Dec-08 13:19 208 0 gusting 5 15.6
2019-Dec-08 13:09 183 0 gusting 2 15.6
2019-Dec-08 12:59 195 0 gusting 3 15.6
2019-Dec-08 12:49 131 0 gusting 4 15.6
2019-Dec-08 12:39 132 1 gusting 4 15.6
2019-Dec-08 12:29 196 1 gusting 4 15.6
2019-Dec-08 12:19 172 1 gusting 4 16.1
2019-Dec-08 12:09 201 1 gusting 4 15.6
2019-Dec-08 11:59 199 0 gusting 4 15.0
2019-Dec-08 11:49 200 0 gusting 2 15.6
2019-Dec-08 11:39 221 1 gusting 4 15.0
2019-Dec-08 11:29 228 1 gusting 4 15.0
2019-Dec-08 11:19 222 1 gusting 5 15.0
2019-Dec-08 11:09 166 0 gusting 5 15.6
2019-Dec-08 10:59 142 0 gusting 4 15.6
2019-Dec-08 10:49 169 1 gusting 3 15.6
2019-Dec-08 10:39 105 1 gusting 4 15.0
2019-Dec-08 10:29 107 1 gusting 4 15.0
2019-Dec-08 10:19 062 1 gusting 3 14.4
2019-Dec-08 10:09 051 1 gusting 3 14.4
2019-Dec-08 09:59 065 0 gusting 2 14.4
2019-Dec-08 09:49 122 0 gusting 2 13.9
2019-Dec-08 09:39 244 0 gusting 2 13.3
2019-Dec-08 09:29 213 1 gusting 3 13.9
2019-Dec-08 09:19 112 2 gusting 6 14.4
2019-Dec-08 09:09 102 2 gusting 5 14.4
2019-Dec-08 08:59 097 1 gusting 6 13.9
2019-Dec-08 08:49 100 1 gusting 4 13.9
2019-Dec-08 08:39 108 0 gusting 3 12.8
2019-Dec-08 08:29 090 11.7
2019-Dec-08 08:19 050 11.1
2019-Dec-08 08:09 028 10.6
2019-Dec-08 07:59 012 10.0
2019-Dec-08 07:49 013 10.0
2019-Dec-08 07:39 020 10.0
2019-Dec-08 07:29 019 10.0
2019-Dec-08 07:19 019 9.4
2019-Dec-08 07:09 019 9.4
2019-Dec-08 06:59 019 9.4
2019-Dec-08 06:49 024 9.4
2019-Dec-08 06:39 039 9.4
2019-Dec-08 06:29 032 0 gusting 1 9.4
2019-Dec-08 06:19 004 0 gusting 2 9.4
2019-Dec-08 06:09 003 0 gusting 1 9.4
2019-Dec-08 05:59 327 0 gusting 1 10.0
2019-Dec-08 05:49 239 1 gusting 3 9.4
2019-Dec-08 05:39 032 3 gusting 4 9.4
2019-Dec-08 05:29 039 2 gusting 5 9.4
2019-Dec-08 05:19 027 10.0
2019-Dec-08 05:09 352 10.0
2019-Dec-08 04:59 227 10.0
2019-Dec-08 04:49 168 9.4
2019-Dec-08 04:39 214 1 gusting 3 9.4
2019-Dec-08 04:29 022 1 gusting 2 9.4
2019-Dec-08 04:19 043 0 gusting 2 10.0
2019-Dec-08 04:09 095 1 gusting 1 11.1
2019-Dec-08 03:59 153 1 gusting 3 11.1
2019-Dec-08 03:49 205 2 gusting 4 11.1
2019-Dec-08 03:39 193 1 gusting 4 11.1
2019-Dec-08 03:29 111 2 gusting 4 11.7
2019-Dec-08 03:19 106 10.6
2019-Dec-08 03:09 085 10.0
2019-Dec-08 02:59 081 10.0
2019-Dec-08 02:49 224 0 gusting 1 10.6
2019-Dec-08 02:39 221 0 gusting 2 10.6
2019-Dec-08 02:29 132 0 gusting 2 11.7
2019-Dec-08 02:19 231 10.6
2019-Dec-08 02:09 229 0 gusting 2 10.6
2019-Dec-08 01:59 194 11.1
2019-Dec-08 01:49 073 0 gusting 0 11.1
2019-Dec-08 01:39 070 0 gusting 2 11.7
2019-Dec-08 01:29 057 1 gusting 1 11.1
2019-Dec-08 01:19 088 1 gusting 3 12.2
2019-Dec-08 01:09 090 2 gusting 4 12.2
2019-Dec-08 00:59 090 1 gusting 3 11.7
2019-Dec-08 00:49 068 1 gusting 3 11.1
2019-Dec-08 00:39 074 1 gusting 3 11.7
2019-Dec-08 00:29 101 2 gusting 4 12.2
2019-Dec-08 00:19 109 2 gusting 4 12.2
2019-Dec-08 00:09 107 1 gusting 4 12.2
2019-Dec-08 00:00 109 1 gusting 2 12.2
2019-Dec-07 23:49 117 2 gusting 4 12.8
2019-Dec-07 23:39 112 2 gusting 4 12.8
2019-Dec-07 23:29 110 2 gusting 4 12.8
2019-Dec-07 23:19 111 2 gusting 5 12.8
2019-Dec-07 23:09 116 3 gusting 4 12.8
2019-Dec-07 23:00 114 2 gusting 5 12.8
2019-Dec-07 22:49 108 1 gusting 3 12.2
2019-Dec-07 22:39 096 2 gusting 3 12.2
2019-Dec-07 22:29 106 2 gusting 5 12.2
2019-Dec-07 22:19 107 1 gusting 3 12.2
2019-Dec-07 22:09 090 0 gusting 2 12.2
2019-Dec-07 21:59 086 1 gusting 1 12.8
2019-Dec-07 21:49 115 2 gusting 3 13.3
2019-Dec-07 21:39 120 3 gusting 5 13.3
2019-Dec-07 21:29 117 3 gusting 5 13.3
2019-Dec-07 21:19 110 2 gusting 5 13.3
2019-Dec-07 21:09 111 2 gusting 5 13.3
2019-Dec-07 20:59 107 1 gusting 4 13.3
2019-Dec-07 20:49 107 1 gusting 3 13.3
2019-Dec-07 20:39 113 1 gusting 5 13.3
2019-Dec-07 20:29 103 1 gusting 3 13.3
2019-Dec-07 20:19 105 0 gusting 2 13.3
2019-Dec-07 20:09 106 1 gusting 2 13.3
2019-Dec-07 19:59 114 1 gusting 2 13.3
2019-Dec-07 19:49 118 1 gusting 3 13.3
2019-Dec-07 19:39 113 2 gusting 4 13.3
2019-Dec-07 19:29 110 2 gusting 3 13.3
2019-Dec-07 19:19 106 2 gusting 4 13.3
2019-Dec-07 19:09 108 2 gusting 4 12.8
2019-Dec-07 18:59 106 2 gusting 3 12.8
2019-Dec-07 18:49 115 2 gusting 6 12.8
2019-Dec-07 18:39 107 1 gusting 3 12.8
2019-Dec-07 18:29 111 1 gusting 3 12.8
2019-Dec-07 18:19 091 1 gusting 2 13.3
2019-Dec-07 18:09 125 2 gusting 3 13.3
2019-Dec-07 17:59 127 2 gusting 4 13.3
2019-Dec-07 17:49 129 1 gusting 4 13.3
2019-Dec-07 17:39 132 0 gusting 2 13.3
2019-Dec-07 17:29 157 0 gusting 3 13.3
2019-Dec-07 17:19 134 0 gusting 4 13.3
2019-Dec-07 17:09 128 0 gusting 2 13.3
2019-Dec-07 16:59 136 13.3
2019-Dec-07 16:49 172 13.3
2019-Dec-07 16:39 196 13.9
2019-Dec-07 16:29 201 0 gusting 2 13.9
2019-Dec-07 16:19 208 0 gusting 3 14.4
2019-Dec-07 16:09 219 0 gusting 2 14.4
2019-Dec-07 15:59 201 14.4
2019-Dec-07 15:49 119 1 gusting 1 14.4
2019-Dec-07 15:39 113 0 gusting 2 14.4
2019-Dec-07 15:29 115 0 gusting 1 15.0
2019-Dec-07 15:19 109 0 gusting 1 15.0
2019-Dec-07 15:09 088 0 gusting 1 15.0
2019-Dec-07 14:59 123 1 gusting 2 15.0
2019-Dec-07 14:49 125 0 gusting 2 15.0
2019-Dec-07 14:39 117 0 gusting 2 15.0
2019-Dec-07 14:29 124 15.6
2019-Dec-07 14:19 128 15.6
2019-Dec-07 14:09 177 15.6
2019-Dec-07 13:59 143 0 gusting 1 15.6
2019-Dec-07 13:49 216 0 gusting 3 15.6
2019-Dec-07 13:39 142 0 gusting 1 15.6
2019-Dec-07 13:29 121 1 gusting 2 15.6
2019-Dec-07 13:19 116 0 gusting 3 15.6
2019-Dec-07 13:09 149 1 gusting 3 16.1
2019-Dec-07 12:59 219 1 gusting 5 16.1
2019-Dec-07 12:49 212 1 gusting 4 16.1
2019-Dec-07 12:39 215 1 gusting 5 16.1
2019-Dec-07 12:29 235 0 gusting 3 16.1
2019-Dec-07 12:19 228 0 gusting 2 16.1
2019-Dec-07 12:09 237 16.1
2019-Dec-07 11:59 097 0 gusting 0 16.1
2019-Dec-07 11:49 081 0 gusting 1 16.1
2019-Dec-07 11:39 095 0 gusting 1 15.6
2019-Dec-07 11:29 024 0 gusting 2 15.6
2019-Dec-07 11:19 294 0 gusting 3 15.6
2019-Dec-07 11:09 198 0 gusting 3 16.1
2019-Dec-07 10:59 125 0 gusting 3 16.1
2019-Dec-07 10:49 159 0 gusting 3 16.1
2019-Dec-07 10:39 154 15.6
2019-Dec-07 10:29 227 0 gusting 1 15.0
2019-Dec-07 10:19 251 15.0
2019-Dec-07 10:09 233 14.4
2019-Dec-07 09:59 172 0 gusting 1 14.4
2019-Dec-07 09:49 210 1 gusting 2 13.9
2019-Dec-07 09:39 236 1 gusting 2 13.3
2019-Dec-07 09:29 236 0 gusting 2 13.9
2019-Dec-07 09:19 122 0 gusting 4 14.4
2019-Dec-07 09:09 056 1 gusting 2 13.9
2019-Dec-07 08:59 074 1 gusting 2 13.9
2019-Dec-07 08:49 089 1 gusting 4 13.9
2019-Dec-07 08:39 081 0 gusting 4 13.3
2019-Dec-07 08:29 149 0 gusting 1 13.3
2019-Dec-07 08:19 130 0 gusting 1 13.3
2019-Dec-07 08:09 087 1 gusting 2 13.3
2019-Dec-07 07:59 111 1 gusting 4 12.8
2019-Dec-07 07:49 119 0 gusting 5 12.2
2019-Dec-07 07:39 114 0 gusting 3 11.7
2019-Dec-07 07:29 096 0 gusting 1 11.1
2019-Dec-07 07:19 346 0 gusting 1 11.1
2019-Dec-07 07:09 115 11.1
2019-Dec-07 06:59 057 10.6
2019-Dec-07 06:49 058 0 gusting 1 10.6
2019-Dec-07 06:39 235 1 gusting 2 10.6
2019-Dec-07 06:29 247 2 gusting 4 11.1
2019-Dec-07 06:19 195 1 gusting 4 12.2
2019-Dec-07 06:09 128 1 gusting 3 12.8
2019-Dec-07 05:59 126 2 gusting 4 12.8
2019-Dec-07 05:49 114 1 gusting 3 11.7
2019-Dec-07 05:39 082 0 gusting 2 11.1
2019-Dec-07 05:29 245 11.1
2019-Dec-07 05:19 112 11.1
2019-Dec-07 05:09 112 0 gusting 0 11.1
2019-Dec-07 04:59 113 0 gusting 1 12.2
2019-Dec-07 04:49 123 1 gusting 3 12.8
2019-Dec-07 04:39 117 2 gusting 4 12.2
2019-Dec-07 04:29 113 1 gusting 3 12.2
2019-Dec-07 04:19 106 11.7
2019-Dec-07 04:09 070 11.7
2019-Dec-07 03:59 089 0 gusting 1 11.7
2019-Dec-07 03:49 136 1 gusting 2 12.2
2019-Dec-07 03:39 198 1 gusting 3 11.7
2019-Dec-07 03:29 136 2 gusting 3 11.7
2019-Dec-07 03:19 113 1 gusting 4 11.7
2019-Dec-07 03:09 126 0 gusting 3 11.7
2019-Dec-07 02:59 195 0 gusting 1 11.1
2019-Dec-07 02:49 098 0 gusting 1 10.6
2019-Dec-07 02:39 092 1 gusting 1 10.6
2019-Dec-07 02:29 236 2 gusting 3 10.6
2019-Dec-07 02:19 223 2 gusting 4 11.1
2019-Dec-07 02:09 118 2 gusting 5 11.7
2019-Dec-07 01:59 228 2 gusting 5 11.1
2019-Dec-07 01:49 112 1 gusting 4 12.2
2019-Dec-07 01:39 222 1 gusting 4 11.7
2019-Dec-07 01:29 109 2 gusting 5 11.7
2019-Dec-07 01:19 095 2 gusting 5 11.7
2019-Dec-07 01:09 075 1 gusting 4 11.7
2019-Dec-07 00:59 067 1 gusting 2 11.7
2019-Dec-07 00:49 064 0 gusting 1 11.7
2019-Dec-07 00:39 074 2 gusting 2 11.1
2019-Dec-07 00:29 062 2 gusting 3 11.1
2019-Dec-07 00:19 063 2 gusting 3 10.6
2019-Dec-07 00:09 067 1 gusting 3 10.6
2019-Dec-06 23:59 034 0 gusting 3 10.6
2019-Dec-06 23:49 018 0 gusting 1 10.6
2019-Dec-06 23:39 040 2 gusting 2 11.1
2019-Dec-06 23:30 059 1 gusting 3 11.1
2019-Dec-06 23:19 029 11.1
2019-Dec-06 23:09 127 11.1
2019-Dec-06 23:00 130 10.6
2019-Dec-06 22:49 133 0 gusting 0 10.6
2019-Dec-06 22:39 253 0 gusting 3 10.6
2019-Dec-06 22:29 259 0 gusting 3 10.6
2019-Dec-06 22:19 140 2 gusting 4 11.1
2019-Dec-06 22:09 251 4 gusting 7 10.0
2019-Dec-06 21:59 154 3 gusting 6 12.2
2019-Dec-06 21:49 107 2 gusting 5 12.8
2019-Dec-06 21:39 095 1 gusting 3 12.2
2019-Dec-06 21:29 098 11.1
2019-Dec-06 21:19 241 0 gusting 1 11.1
2019-Dec-06 21:09 176 2 gusting 3 12.2